Regional Weather Roundup
Issued by NWS

Home | Current Version | Previous Version | Text Only | Print | Product List | Glossary On
Versions: 1 2 3 4 5 6 7 8 9 10 11 12 13 14 15 16 17 18 19 20 21 22 23 24 25 26 27 28 29 30 31 32 33 34 35 36 37 38 39 40 41 42 43 44 45 46 47 48 49 50
000
ASUS44 KLIX 020912
RWRLA
LOUISIANA WEATHER ROUNDUP
NATIONAL WEATHER SERVICE NEW ORLEANS LA
400 AM CDT SUN AUG 02 2015

NOTE: "FAIR" INDICATES FEW OR NO CLOUDS BELOW 12,000 FEET WITH NO
      SIGNIFICANT WEATHER AND/OR OBSTRUCTIONS TO VISIBILITY.
      SKY/WX - SKY CONDITION AND SIGNIFICANT WEATHER.
      TMP - AIR TEMPERATURE.    DP   - DEWPOINT TEMPERATURE.
      RH  - RELATIVE HUMIDITY.  PRES - PRESSURE.
      HX  - HEAT INDEX.         WCI  - WIND CHILL INDEX.

*  THESE STATIONS ARE NOT NWS OR FAA STATIONS AND ARE NOT UNDER
   NWS QUALITY CONTROL.

LAZ040-048-061>063-065-066-069-021000-
SOUTHEAST LOUISIANA

CITY           SKY/WX    TMP DP  RH WIND       PRES   REMARKS
N.O. AUDUBON     N/A     78  73  84 MISG        N/A
N.O. INTL ARPT CLEAR     75  69  81 W5        29.87F
N.O. LAKEFRONT CLEAR     82  64  54 CALM      29.87F
N.O. DOWNTOWN* FAIR      82  68  61 CALM      29.87F
RESERVE*         N/A     72  69  89 CALM      29.88S
SLIDELL        CLEAR     68  67  96 CALM      29.87F
BATON ROUGE    CLEAR     72  66  81 NE3       29.89F
BOOTHVILLE     CLEAR     82  75  79 W3        29.87F
BELLE CHASSE   CLEAR     73  71  93 CALM      29.86F
BOGALUSA*        N/A     69  65  86 CALM      29.90S
GALLIANO*      NOT AVBL
NEW ROADS*     FAIR     N/A N/A N/A CALM      29.89F
GONZALES*      FAIR      70  70 100 CALM      29.87F
HAMMOND*       CLEAR     68  64  88 CALM      29.90F
HOUMA*         CLEAR     74  71  92 CALM      29.87F
PORT FOURCHON* SUNNY     86  73  66 SW3       29.87F

$$

LAZ041-044-053-054-021000-
SOUTHWEST LOUISIANA

CITY           SKY/WX    TMP DP  RH WIND       PRES   REMARKS
LAKE CHARLES   CLEAR     71  68  90 CALM      29.89S
LAFAYETTE      CLEAR     73  68  84 NE3       29.88F
PATTERSON      CLEAR     73  72  94 CALM      29.89F
SALT POINT       N/A     78  73  84 MISG      29.86F
NEW IBERIA     CLEAR     71  68  90 CALM      29.89S
CHENAULT AIRPK CLEAR     73  65  76 CALM      29.89F

$$

LAZ027-028-021000-
CENTRAL LOUISIANA

CITY           SKY/WX    TMP DP  RH WIND       PRES   REMARKS
FORT POLK      CLEAR     76  60  57 NE6       29.89F
ALEXANDRIA INT CLEAR     68  66  93 CALM      29.89F
ALEXANDRIA     CLEAR     67  64  90 CALM      29.91F

$$

LAZ001-002-021000-
NORTHWEST LOUISIANA

CITY           SKY/WX    TMP DP  RH WIND       PRES   REMARKS
SHREVEPORT     PTCLDY    70  63  78 CALM      29.93S
BARKSDALE AFB  CLEAR     69  65  87 CALM      29.93S
DTN SHREVEPORT CLEAR     71  67  87 CALM      29.94S

$$

LAZ014-016-021000-
NORTHEAST LOUISIANA

CITY           SKY/WX    TMP DP  RH WIND       PRES   REMARKS
MONROE         CLEAR     69  65  86 NE3       29.93F
TALLULAH       PTCLDY    68  66  93 CALM      29.92F

$$



USA.gov is the U.S. government's official web portal to all federal, state and local government web resources and services.